TimeMDT,TemperatureF,Dew PointF,Humidity,Sea Level PressureIn,VisibilityMPH,Wind Direction,Wind SpeedMPH,Gust SpeedMPH,PrecipitationIn,Events,Conditions,WindDirDegrees,DateUTC
12:35 AM,30.2,8.6,40,29.93,10.0,WSW,6.9,-,N/A,,Clear,240,2013-03-18 06:35:00
12:55 AM,30.2,10.4,44,29.93,10.0,SW,4.6,-,N/A,,Clear,230,2013-03-18 06:55:00
1:15 AM,30.2,8.6,40,29.94,10.0,WSW,3.5,-,N/A,,Clear,240,2013-03-18 07:15:00
1:35 AM,30.2,8.6,40,29.94,10.0,SW,3.5,-,N/A,,Clear,230,2013-03-18 07:35:00
2:15 AM,28.4,8.6,43,29.94,10.0,West,10.4,-,N/A,,Clear,260,2013-03-18 08:15:00
2:35 AM,28.4,10.4,47,29.95,10.0,West,6.9,-,N/A,,Clear,270,2013-03-18 08:35:00
2:55 AM,28.4,6.8,40,29.95,10.0,West,4.6,-,N/A,,Clear,260,2013-03-18 08:55:00
3:15 AM,26.6,8.6,47,29.95,10.0,WSW,5.8,-,N/A,,Clear,250,2013-03-18 09:15:00
3:35 AM,26.6,8.6,47,29.95,10.0,WSW,4.6,-,N/A,,Scattered Clouds,240,2013-03-18 09:35:00
3:55 AM,28.4,8.6,43,29.94,10.0,SW,3.5,-,N/A,,Mostly Cloudy,220,2013-03-18 09:55:00
4:15 AM,28.4,8.6,43,29.94,10.0,West,3.5,-,N/A,,Partly Cloudy,270,2013-03-18 10:15:00
4:35 AM,26.6,6.8,43,29.94,10.0,WSW,8.1,-,N/A,,Clear,250,2013-03-18 10:35:00
4:55 AM,26.6,8.6,47,29.94,10.0,WSW,6.9,-,N/A,,Mostly Cloudy,250,2013-03-18 10:55:00
5:15 AM,26.6,8.6,47,29.94,10.0,West,6.9,-,N/A,,Partly Cloudy,260,2013-03-18 11:15:00
5:35 AM,26.6,10.4,51,29.94,10.0,WSW,5.8,-,N/A,,Scattered Clouds,250,2013-03-18 11:35:00
5:55 AM,26.6,8.6,47,29.94,10.0,WSW,5.8,-,N/A,,Partly Cloudy,250,2013-03-18 11:55:00
6:15 AM,26.6,10.4,51,29.95,10.0,WSW,4.6,-,N/A,,Mostly Cloudy,250,2013-03-18 12:15:00
6:35 AM,28.4,12.2,51,29.96,10.0,WSW,3.5,-,N/A,,Scattered Clouds,250,2013-03-18 12:35:00
6:55 AM,28.4,10.4,47,29.96,10.0,SSW,5.8,-,N/A,,Partly Cloudy,210,2013-03-18 12:55:00
7:15 AM,28.4,10.4,47,29.97,10.0,WSW,3.5,-,N/A,,Partly Cloudy,240,2013-03-18 13:15:00
7:35 AM,28.4,10.4,47,29.98,10.0,West,3.5,-,N/A,,Mostly Cloudy,260,2013-03-18 13:35:00
7:55 AM,28.4,10.4,47,29.99,10.0,West,9.2,-,N/A,,Overcast,270,2013-03-18 13:55:00
8:15 AM,28.4,8.6,43,29.99,10.0,West,8.1,-,N/A,,Overcast,270,2013-03-18 14:15:00
8:35 AM,28.4,10.4,47,30.01,10.0,West,10.4,16.1,N/A,,Overcast,270,2013-03-18 14:35:00
9:15 AM,30.2,10.4,44,30.02,10.0,West,11.5,17.3,N/A,,Mostly Cloudy,260,2013-03-18 15:15:00
9:35 AM,30.2,10.4,44,30.03,10.0,WNW,17.3,21.9,N/A,,Overcast,300,2013-03-18 15:35:00
9:55 AM,32.0,12.2,44,30.04,10.0,NW,11.5,17.3,N/A,,Overcast,310,2013-03-18 15:55:00
10:15 AM,33.8,15.8,48,30.04,10.0,NW,13.8,17.3,N/A,,Overcast,310,2013-03-18 16:15:00
10:35 AM,35.6,10.4,35,30.03,10.0,WNW,18.4,26.5,N/A,,Overcast,290,2013-03-18 16:35:00
10:55 AM,35.6,12.2,38,30.04,10.0,West,12.7,24.2,N/A,,Overcast,260,2013-03-18 16:55:00
11:15 AM,35.6,10.4,35,30.03,10.0,WSW,17.3,27.6,N/A,,Mostly Cloudy,240,2013-03-18 17:15:00
11:35 AM,37.4,8.6,30,30.03,10.0,West,21.9,29.9,N/A,,Mostly Cloudy,270,2013-03-18 17:35:00
11:55 AM,35.6,10.4,35,30.04,10.0,WSW,18.4,27.6,N/A,,Overcast,250,2013-03-18 17:55:00
12:15 PM,37.4,12.2,36,30.04,10.0,West,23.0,32.2,N/A,,Overcast,280,2013-03-18 18:15:00
12:35 PM,37.4,10.4,33,30.04,10.0,West,17.3,27.6,N/A,,Mostly Cloudy,260,2013-03-18 18:35:00
12:55 PM,37.4,8.6,30,30.03,10.0,WSW,25.3,32.2,N/A,,Mostly Cloudy,250,2013-03-18 18:55:00
1:15 PM,39.2,12.2,33,30.03,10.0,West,20.7,29.9,N/A,,Mostly Cloudy,260,2013-03-18 19:15:00
1:35 PM,39.2,10.4,31,30.03,10.0,West,16.1,25.3,N/A,,Mostly Cloudy,270,2013-03-18 19:35:00
1:55 PM,39.2,12.2,33,30.03,10.0,WSW,16.1,28.8,N/A,,Mostly Cloudy,240,2013-03-18 19:55:00
2:15 PM,39.2,15.8,39,30.02,10.0,West,18.4,27.6,N/A,,Mostly Cloudy,280,2013-03-18 20:15:00
2:35 PM,42.8,12.2,29,30.01,10.0,West,20.7,29.9,N/A,,Mostly Cloudy,280,2013-03-18 20:35:00
2:55 PM,41.0,10.4,29,30.00,10.0,West,19.6,31.1,N/A,,Mostly Cloudy,260,2013-03-18 20:55:00
3:15 PM,41.0,10.4,29,29.99,10.0,West,21.9,28.8,N/A,,Overcast,260,2013-03-18 21:15:00
3:35 PM,41.0,10.4,29,29.99,10.0,West,23.0,32.2,N/A,,Mostly Cloudy,260,2013-03-18 21:35:00
3:55 PM,42.8,10.4,27,29.99,10.0,WSW,21.9,29.9,N/A,,Mostly Cloudy,240,2013-03-18 21:55:00
4:15 PM,41.0,10.4,29,29.99,10.0,WSW,23.0,32.2,N/A,,Mostly Cloudy,250,2013-03-18 22:15:00
4:35 PM,41.0,10.4,29,29.99,10.0,WSW,15.0,28.8,N/A,,Scattered Clouds,250,2013-03-18 22:35:00
4:55 PM,42.8,12.2,29,29.99,10.0,West,17.3,26.5,N/A,,Partly Cloudy,260,2013-03-18 22:55:00
5:15 PM,42.8,10.4,27,29.99,10.0,West,17.3,27.6,N/A,,Clear,260,2013-03-18 23:15:00
5:35 PM,42.8,10.4,27,30.00,10.0,West,20.7,31.1,N/A,,Clear,270,2013-03-18 23:35:00
5:55 PM,42.8,10.4,27,30.00,10.0,West,17.3,25.3,N/A,,Clear,270,2013-03-18 23:55:00
6:15 PM,41.0,10.4,29,30.00,10.0,West,20.7,28.8,N/A,,Clear,280,2013-03-19 00:15:00
6:35 PM,39.2,10.4,31,30.00,10.0,West,12.7,20.7,N/A,,Clear,260,2013-03-19 00:35:00
6:55 PM,39.2,8.6,28,30.00,10.0,West,21.9,27.6,N/A,,Clear,260,2013-03-19 00:55:00
7:15 PM,37.4,6.8,28,30.01,10.0,West,17.3,26.5,N/A,,Clear,270,2013-03-19 01:15:00
7:35 PM,37.4,6.8,28,30.01,10.0,West,12.7,18.4,N/A,,Clear,270,2013-03-19 01:35:00
7:55 PM,37.4,8.6,30,30.02,10.0,West,13.8,19.6,N/A,,Clear,280,2013-03-19 01:55:00
8:15 PM,37.4,6.8,28,30.02,10.0,West,9.2,-,N/A,,Clear,270,2013-03-19 02:15:00
8:35 PM,35.6,8.6,33,30.03,10.0,West,6.9,-,N/A,,Clear,270,2013-03-19 02:35:00
8:55 PM,35.6,8.6,33,30.03,10.0,SW,4.6,-,N/A,,Clear,230,2013-03-19 02:55:00
9:15 PM,33.8,8.6,35,30.04,10.0,WNW,4.6,-,N/A,,Clear,290,2013-03-19 03:15:00
9:55 PM,33.8,10.4,38,30.05,10.0,WSW,5.8,-,N/A,,Clear,250,2013-03-19 03:55:00
10:15 PM,33.8,10.4,38,30.05,10.0,WSW,3.5,-,N/A,,Clear,250,2013-03-19 04:15:00
10:35 PM,33.8,10.4,38,30.05,10.0,Calm,Calm,-,N/A,,Clear,0,2013-03-19 04:35:00
10:55 PM,33.8,10.4,38,30.06,10.0,Calm,Calm,-,N/A,,Clear,0,2013-03-19 04:55:00
11:15 PM,32.0,10.4,41,30.06,10.0,WSW,3.5,-,N/A,,Clear,250,2013-03-19 05:15:00
11:35 PM,32.0,12.2,44,30.07,10.0,West,3.5,-,N/A,,Clear,260,2013-03-19 05:35:00
11:55 PM,30.2,10.4,44,30.07,10.0,WSW,5.8,-,N/A,,Clear,250,2013-03-19 05:55:00